Lapse_Rate
5.1 7.6 8.1 6.3 6.4 6.5 6.5 6.5 6.5 6.5 6.5 6.3 6.5 6.5 6.4 5.6 6.5 6.5 6.1 8.2 6.3 4.9 4.7 5.6 5.8 6.5 6.8 6.4 6.2 6.2 6.2 6.3 6.5 6.7 6.9 7.1 6.9 7.2 7.3 6.8 6.2 6.1 6.1 6.6 7.1 6.4 6.1 6.4 6.8
5.3 7.0 6.8 5.4 6.5 6.5 6.5 6.5 6.5 6.5 6.2 5.9 6.1 6.4 6.2 6.5 6.3 6.6 6.2 8.3 8.1 6.2 5.5 5.5 5.8 6.2 6.2 5.8 5.8 5.9 6.2 6.3 6.4 6.6 6.9 7.6 7.5 7.5 7.1 6.3 5.8 5.9 6.0 6.4 6.1 5.8 5.6 6.0 6.3
5.5 7.4 5.9 6.5 6.5 6.5 6.5 6.5 6.5 6.2 6.5 6.8 6.1 6.1 5.9 6.4 6.5 6.6 6.2 8.0 8.2 7.0 7.3 4.9 5.0 5.6 6.0 5.6 5.5 5.5 5.7 6.2 6.4 6.7 7.5 7.6 7.7 7.0 6.7 5.9 5.4 5.0 5.1 6.2 7.0 5.6 5.0 5.2 5.4
7.5 6.9 6.3 6.5 6.5 6.5 6.5 6.5 6.5 6.5 6.9 7.1 6.3 6.5 6.6 6.6 7.8 6.4 7.0 8.2 8.1 8.1 6.8 5.0 5.8 5.8 5.8 5.5 5.5 5.7 5.8 6.0 6.5 7.1 7.2 7.6 7.2 7.1 6.5 5.6 5.1 4.9 5.0 5.5 6.4 6.3 6.1 5.9 6.0
7.6 6.3 6.5 6.5 6.5 6.5 6.5 6.0 6.7 6.5 6.3 6.4 6.6 6.2 6.2 6.6 6.4 6.7 7.1 8.2 7.9 6.1 5.5 5.2 5.7 5.8 5.7 5.7 5.6 5.6 5.7 5.8 6.4 7.1 7.4 7.5 7.4 7.3 6.7 6.0 5.6 5.4 5.3 5.3 5.8 5.9 5.8 5.6 5.5
6.0 5.9 6.5 6.5 6.5 6.5 6.5 6.0 6.4 6.4 5.9 6.2 6.7 5.6 6.3 6.4 7.1 7.3 7.9 7.6 8.0 4.9 5.7 5.2 5.4 5.6 5.4 5.6 5.6 5.6 5.6 5.8 6.6 7.1 7.9 7.9 7.9 7.5 6.7 6.3 5.8 5.5 5.4 5.3 5.3 5.3 5.3 5.3 5.3
6.4 6.5 6.5 6.5 6.5 6.5 6.5 5.7 6.1 6.0 5.7 5.9 6.8 6.5 5.7 6.6 6.4 7.4 7.6 7.7 7.5 6.5 6.0 5.1 5.1 5.3 5.2 5.1 5.1 5.5 5.6 5.5 6.0 6.9 7.5 7.5 6.9 7.0 6.8 6.4 5.9 5.6 5.4 5.2 5.1 5.2 5.3 5.3 5.4
6.4 6.5 6.5 6.5 6.5 6.5 6.1 5.8 5.8 5.8 6.0 6.7 6.8 6.5 6.1 7.0 7.3 7.3 7.6 7.5 7.1 7.3 6.7 5.8 5.6 5.3 5.2 4.7 5.0 5.1 5.2 5.2 5.2 6.0 6.0 6.5 6.6 6.8 6.3 6.1 5.7 5.5 5.3 5.1 5.1 5.2 5.4 5.6 5.6
7.2 6.5 6.5 6.5 6.5 6.5 5.7 6.5 6.7 7.3 6.1 6.3 7.5 6.5 6.1 8.1 8.0 7.1 7.3 7.3 7.3 7.8 7.4 7.3 6.2 7.5 6.6 5.6 4.8 5.0 5.0 5.0 5.0 4.9 4.9 5.9 6.3 6.3 6.1 5.8 5.3 5.2 5.1 5.1 5.3 5.4 5.4 5.8 6.1
6.4 6.5 6.5 6.5 6.5 6.5 6.2 6.5 6.4 6.5 5.8 5.9 6.0 6.7 6.2 7.2 7.8 6.7 6.6 6.4 6.7 7.0 7.3 7.6 6.9 7.0 8.1 7.8 5.2 5.2 5.1 4.6 4.7 4.9 4.5 5.7 7.1 6.8 6.4 5.5 5.3 5.3 5.2 5.3 5.6 6.0 6.4 6.3 6.4
6.3 6.5 6.5 6.5 6.4 6.4 6.3 6.1 7.1 6.2 6.5 5.9 5.5 5.9 5.7 6.8 6.5 6.6 6.7 6.5 6.6 6.9 7.1 7.6 7.5 7.1 7.2 7.7 5.9 6.7 6.7 6.6 6.0 6.0 5.2 6.1 6.8 6.6 6.1 4.8 5.0 5.0 5.3 5.5 6.1 6.5 6.9 7.3 7.2
6.5 6.5 6.6 6.6 6.7 6.8 6.5 6.5 6.1 5.8 5.7 6.2 5.9 6.4 6.6 6.6 6.4 6.6 6.5 6.4 6.4 6.6 7.1 7.2 7.6 7.7 6.8 6.2 6.3 7.0 7.0 7.7 8.1 8.0 7.2 6.9 6.0 5.7 5.7 5.5 5.8 5.6 6.3 6.7 7.4 7.1 7.1 7.5 8.1
6.5 6.5 6.7 6.6 6.4 6.5 6.8 6.2 6.4 6.1 6.2 6.4 6.5 6.6 6.9 7.1 6.4 6.1 6.3 6.8 6.3 6.4 6.8 6.9 7.2 7.4 7.5 6.6 6.3 7.2 7.0 7.2 8.0 8.2 8.5 7.9 6.2 5.5 6.6 6.5 7.2 7.0 7.4 6.8 5.9 6.1 6.3 6.3 6.8
6.6 6.5 6.5 6.6 6.4 6.5 6.5 6.3 6.0 6.3 6.6 6.5 6.6 6.0 5.9 6.1 6.4 6.0 5.9 6.5 6.5 6.4 6.0 6.7 7.1 7.1 6.9 7.0 6.8 7.6 6.7 7.2 7.8 7.7 7.7 8.2 7.4 6.2 6.0 5.7 4.9 5.0 5.4 6.2 6.2 5.1 4.9 4.8 4.8
6.7 6.5 6.5 6.5 6.4 6.5 6.5 6.5 6.5 6.6 6.8 6.3 6.1 6.4 6.6 6.2 6.1 6.0 6.0 5.8 5.9 6.0 6.2 6.1 7.0 7.0 7.1 6.7 5.5 5.4 7.1 6.7 7.3 7.4 8.4 8.3 8.1 6.7 5.6 4.1 3.7 4.2 5.2 5.9 6.1 5.8 5.1 3.2 3.3
6.5 6.5 6.5 6.5 6.5 6.4 6.3 6.5 6.5 6.1 6.2 6.3 6.3 6.3 6.2 6.2 6.6 6.9 6.3 6.1 6.0 5.9 5.8 6.0 7.4 7.2 6.5 7.1 4.8 4.5 5.5 6.6 6.6 7.7 8.2 8.2 7.4 6.7 4.5 3.2 3.4 5.5 5.3 4.3 3.6 3.5 2.6 2.0 1.9
6.5 6.5 6.5 6.5 6.5 6.5 6.5 6.5 6.5 6.3 6.3 5.4 5.2 5.6 5.9 6.3 6.3 6.1 6.3 6.6 6.5 5.5 5.7 5.3 5.0 5.4 6.0 6.1 5.6 4.4 5.2 7.1 6.7 7.3 7.4 7.4 7.3 5.7 3.4 2.2 3.1 5.3 3.6 2.9 3.4 1.9 1.8 1.3 1.0
6.5 6.5 6.5 6.5 6.5 6.5 6.5 6.5 6.5 6.0 6.0 5.3 5.0 4.9 4.8 5.2 5.6 6.1 6.6 5.9 5.9 5.8 5.9 5.8 4.5 4.8 5.0 5.5 6.1 5.1 5.2 5.9 6.4 6.7 6.6 6.9 5.8 5.0 3.2 2.5 3.2 3.6 2.4 2.6 2.3 1.4 1.0 0.7 0.7
6.5 6.5 6.5 6.5 6.5 6.5 6.5 6.5 6.5 6.1 5.7 6.0 5.8 5.7 5.9 6.1 6.1 5.8 5.6 5.3 5.0 5.0 4.9 5.3 4.6 4.7 5.1 4.6 6.4 6.6 6.2 6.0 4.7 4.3 5.8 6.0 5.4 3.7 2.4 2.0 2.5 2.8 2.4 2.2 2.4 1.6 1.1 0.0 0.1
6.5 6.5 6.5 6.5 6.5 6.5 6.5 6.5 6.5 6.5 6.4 6.1 6.1 5.9 5.8 5.7 5.4 5.6 5.5 5.1 5.2 5.1 4.6 4.6 4.8 5.1 5.5 5.6 5.7 6.3 2.0 0.9 0.5 2.5 4.3 4.9 3.9 3.1 2.6 1.9 2.1 1.9 1.8 2.1 1.9 1.6 1.1 0.8 0.1
6.5 6.5 6.5 6.5 6.5 6.5 6.5 6.5 6.5 6.5 6.4 6.3 6.4 6.4 5.9 5.4 5.7 5.9 5.4 5.1 4.5 5.1 5.0 5.5 4.9 4.7 5.6 4.7 4.6 1.3 0.5 -0.6 -0.6 0.9 0.4 1.4 1.3 1.1 1.7 1.9 2.1 2.3 1.7 1.3 1.5 1.1 1.3 0.9 0.7
6.5 6.5 6.5 6.5 6.5 6.5 6.5 6.5 6.5 6.5 6.5 6.5 4.8 4.2 4.8 5.6 5.6 5.4 5.4 4.8 5.0 4.5 5.2 5.0 5.0 5.3 4.7 4.3 5.2 2.7 2.7 0.9 -1.0 -1.5 -1.1 0.5 1.3 1.9 2.8 2.5 2.2 1.9 0.5 0.3 0.4 0.9 1.1 0.9 1.2
6.5 6.5 6.5 6.5 6.5 6.5 6.5 6.5 6.5 6.5 6.5 6.5 6.5 4.2 4.0 4.1 4.3 4.7 4.7 5.0 5.0 4.6 3.7 5.6 4.7 5.9 4.7 6.1 6.0 2.6 1.3 -1.3 -2.3 -1.3 -0.4 0.9 1.8 2.4 3.1 2.8 1.6 1.1 0.2 0.7 0.4 0.4 0.4 0.6 0.4
6.5 6.5 6.5 6.5 6.5 6.5 6.5 6.5 6.5 6.5 6.5 6.5 6.5 4.7 4.8 5.2 5.7 5.9 5.9 6.3 4.9 3.9 3.6 4.2 4.1 4.4 4.4 5.5 4.6 3.1 0.5 -1.7 -2.4 -1.3 -0.3 -0.3 1.2 2.0 2.9 2.9 1.4 0.7 0.1 -0.0 -0.2 0.0 -0.0 0.0 0.2
6.5 6.5 6.5 6.5 6.5 6.5 6.5 6.5 6.5 6.5 6.5 6.5 6.5 6.2 5.6 6.3 6.3 5.4 5.3 4.4 4.4 4.2 3.8 3.6 4.3 4.2 4.1 4.0 3.9 3.9 0.5 -1.1 -2.3 -2.4 -1.1 0.9 1.5 2.4 2.4 2.1 2.0 0.2 0.3 0.4 0.3 -0.5 -0.4 -0.1 0.1
6.5 6.5 6.5 6.5 6.5 6.5 6.5 6.5 6.5 6.5 6.2 6.3 6.1 6.1 5.8 5.3 4.8 6.2 5.8 4.8 4.7 4.6 3.9 3.9 4.2 4.3 4.1 4.4 4.0 3.6 1.9 -0.5 -1.7 -1.6 0.6 0.9 1.5 2.0 2.7 2.4 2.0 1.4 0.8 0.4 0.4 -0.3 -0.5 -0.1 0.2
6.5 6.5 6.5 6.5 6.5 6.5 6.5 6.5 6.5 6.5 6.5 6.5 6.0 5.4 4.6 4.3 5.1 6.5 5.6 5.3 5.1 4.3 3.9 4.2 4.4 4.6 4.3 4.7 4.6 3.3 2.9 0.5 -0.4 -0.7 1.5 1.4 2.1 3.7 3.3 2.6 2.2 0.8 0.9 0.8 0.5 0.3 0.8 1.3 1.7
6.5 6.5 6.5 6.5 6.5 6.5 6.5 6.5 6.5 6.5 6.5 6.5 6.5 6.1 5.0 5.2 6.1 6.0 5.3 5.5 5.6 4.7 4.1 4.4 4.5 4.7 4.7 4.6 5.0 4.2 2.2 1.6 0.7 2.1 1.9 2.8 3.9 3.8 3.1 2.0 2.4 1.7 1.1 1.3 1.4 1.5 2.1 2.6 2.1
6.5 6.5 6.5 6.5 6.5 6.5 6.5 6.5 6.5 6.5 6.5 6.5 6.5 5.3 5.0 6.3 5.7 5.1 5.0 4.6 5.3 4.7 4.5 4.3 4.5 5.1 5.3 5.9 3.9 1.9 0.9 1.7 2.1 2.0 2.8 3.4 4.1 3.7 3.3 2.7 3.0 2.3 1.7 1.9 1.9 2.2 2.7 3.0 3.1
6.5 6.5 6.5 6.5 6.5 6.5 6.5 6.5 6.5 6.5 6.5 6.5 6.3 5.4 4.9 5.7 5.7 4.9 5.3 4.7 5.0 5.2 4.8 4.3 5.6 6.0 5.1 3.9 2.2 1.1 1.5 1.9 2.4 2.6 3.5 4.6 4.2 4.3 3.4 3.6 2.7 2.6 2.1 2.1 2.3 2.9 3.2 3.4 3.5
Wind_Speed
16 18 5 3 2 4 8 11 5 2 2 5 5 4 6 8 3 3 6 6 20 17 20 19 20 21 19 17 16 14 13 11 10 10 10 13 11 9 10 10 10 10 11 12 16 19 17 14 14
10 12 4 3 4 6 9 15 7 2 4 9 9 5 6 2 8 7 7 7 17 16 19 19 22 21 19 18 17 14 12 11 11 9 10 13 10 10 11 10 10 9 9 10 12 14 14 12 10
9 11 2 4 5 11 9 10 7 7 7 3 5 9 6 3 8 9 9 11 16 16 19 21 23 22 20 18 16 14 12 10 10 11 12 11 10 11 11 11 10 10 10 10 10 11 11 9 8
5 3 4 5 14 13 18 17 2 7 3 3 6 5 6 8 3 9 8 10 11 15 22 23 21 22 20 18 17 15 13 13 12 11 12 12 12 11 11 11 11 10 10 10 10 10 9 8 8
4 4 6 9 16 16 15 12 3 3 4 4 5 7 5 6 10 12 8 9 10 16 20 21 21 23 21 18 17 15 14 14 15 15 14 13 12 12 11 11 11 11 11 10 9 9 8 7 6
4 3 5 13 16 15 16 16 5 3 7 6 2 7 3 10 9 9 8 8 10 17 17 19 21 22 21 19 17 15 15 15 16 14 12 10 10 12 11 11 11 10 10 9 8 6 5 5 4
9 7 10 13 14 13 13 11 8 8 8 8 4 4 6 8 10 10 8 8 9 18 16 15 16 19 20 20 19 16 15 14 13 12 11 10 6 7 14 12 10 10 8 7 6 5 4 4 3
5 7 15 13 13 15 11 6 9 7 8 6 6 2 3 5 8 9 7 7 8 9 16 14 16 15 15 15 18 17 15 14 13 11 10 9 6 11 16 13 11 9 8 6 5 4 3 3 3
9 8 12 16 15 12 11 1 4 4 6 7 2 5 8 5 6 7 6 6 6 7 10 15 15 16 16 16 16 17 16 15 12 12 12 11 9 14 17 12 13 11 8 7 5 4 5 6 6
6 8 12 11 13 8 11 2 4 3 8 6 7 6 10 6 5 8 8 8 8 8 8 10 15 14 14 15 16 14 13 12 13 13 12 13 12 14 15 15 13 11 9 9 8 8 7 6 9
8 12 9 14 16 6 9 11 1 5 5 6 9 8 10 8 8 8 9 9 9 9 7 8 12 14 13 9 14 12 13 13 14 17 16 16 13 16 14 13 12 12 13 11 12 7 3 5 6
15 13 14 18 12 3 7 8 9 7 8 10 10 7 4 7 7 8 7 8 11 12 10 9 9 11 13 11 8 11 8 11 8 14 19 11 7 8 8 8 11 11 14 8 9 8 6 1 1
13 14 12 10 9 6 7 9 9 13 10 11 10 12 5 5 7 7 9 8 7 10 13 10 8 8 12 11 9 7 9 7 11 9 15 12 5 5 8 7 10 5 11 8 7 6 3 3 7
4 7 10 13 9 8 11 12 11 8 14 14 14 11 9 8 9 9 8 7 7 6 10 12 9 8 8 7 8 8 9 13 13 10 14 16 12 7 4 4 4 7 9 8 6 4 3 3 5
7 9 11 12 11 11 6 15 18 21 17 15 14 15 15 12 10 11 9 8 9 7 7 10 13 8 12 10 5 2 5 11 6 8 15 13 13 9 7 5 4 5 9 7 8 5 5 4 3
5 9 6 9 19 15 14 15 15 12 18 19 18 15 15 13 16 16 11 10 9 8 8 9 11 12 10 11 10 6 4 7 7 9 11 14 13 13 8 5 4 7 5 9 4 3 3 3 3
7 5 12 5 5 3 9 6 11 9 4 8 10 13 13 15 15 12 12 14 12 9 9 8 9 10 9 10 11 10 10 6 9 12 8 13 13 14 10 4 6 8 6 4 4 3 3 3 3
4 11 7 7 6 6 9 12 12 13 14 9 9 9 9 9 11 12 14 11 11 10 10 9 7 8 7 5 11 9 10 7 9 9 7 13 14 15 10 7 6 10 5 4 3 4 4 3 2
11 6 11 5 7 8 10 14 14 13 14 17 15 14 16 16 11 8 9 8 9 9 9 11 11 12 9 4 7 10 10 6 6 7 12 14 14 15 11 4 6 7 5 6 5 2 5 4 3
8 7 10 9 8 7 10 19 17 21 18 19 19 18 16 14 10 10 9 9 9 9 8 8 9 12 11 9 5 5 5 4 4 4 7 12 15 14 8 6 6 7 5 5 5 3 3 2 4
6 6 8 10 11 10 12 16 11 10 19 22 21 20 13 13 14 13 11 10 9 11 9 9 8 8 11 9 6 6 7 5 3 5 5 7 12 14 9 7 6 7 5 5 4 4 4 3 1
6 2 5 6 6 4 11 7 6 9 10 8 10 10 13 16 13 10 10 9 12 10 10 9 9 9 8 10 10 13 8 7 3 4 6 7 10 9 9 8 7 8 5 6 4 4 3 3 3
2 5 4 5 5 7 4 3 7 4 7 6 8 11 10 9 9 9 10 9 9 5 7 13 9 13 9 14 12 9 10 7 8 7 11 9 5 9 8 10 8 7 5 5 6 5 5 3 3
6 2 4 4 2 5 10 9 5 3 4 6 9 6 7 6 5 5 5 4 4 7 6 4 8 8 9 11 10 15 16 15 11 10 9 8 6 4 6 9 8 8 7 6 5 5 6 5 4
3 3 1 2 2 6 3 9 11 15 12 15 8 2 5 4 0 4 6 5 7 8 8 7 8 8 9 9 10 12 14 16 16 14 10 13 9 5 7 7 7 6 7 6 6 6 5 4 3
9 4 2 4 2 4 7 7 6 12 9 3 4 4 3 5 2 2 4 7 9 9 9 8 8 8 9 12 10 8 15 10 10 11 11 9 8 7 9 7 7 9 9 8 6 4 4 4 3
5 7 1 3 4 2 5 6 9 14 10 9 3 6 7 9 6 1 6 7 10 9 9 9 8 8 9 10 8 15 13 13 12 14 11 9 10 8 8 10 8 6 7 7 5 4 3 3 3
7 6 3 1 2 5 5 7 7 4 7 7 6 5 7 6 4 1 4 7 11 9 8 9 9 8 9 9 13 13 14 13 14 13 14 14 11 11 11 9 7 7 6 5 6 4 3 2 0
7 5 2 1 3 3 4 5 4 5 7 7 9 9 8 3 4 2 5 7 11 7 5 8 8 10 10 13 14 15 13 14 14 13 14 13 12 11 11 10 8 6 6 6 5 4 3 2 1
11 6 8 3 4 4 2 7 16 9 2 2 5 7 10 6 3 4 2 8 10 7 4 8 7 12 14 16 15 15 14 14 14 14 14 13 12 9 10 9 7 6 6 5 5 3 2 1 2
Wind_Direction
296 281 267 296 262 215 255 255 250 68 297 315 40 349 12 288 56 103 90 96 120 133 138 147 139 130 130 130 130 128 128 128 127 129 132 127 114 104 102 93 82 78 75 70 66 74 79 97 94
291 294 264 275 233 254 251 235 200 151 45 24 351 318 293 235 87 125 103 141 127 132 145 141 139 133 132 135 134 131 128 131 132 123 142 128 116 110 103 92 84 84 85 84 82 81 84 83 86
266 255 276 207 224 238 257 286 103 147 56 315 250 201 258 67 101 134 111 140 128 133 152 139 138 134 135 137 135 134 132 134 133 132 124 124 122 116 108 100 90 88 91 95 92 93 95 99 98
247 229 268 254 249 229 242 274 38 102 178 208 292 276 91 38 93 104 141 139 130 145 124 134 136 135 135 139 140 139 138 139 139 134 142 129 123 120 111 101 97 95 98 99 98 94 93 91 81
238 261 231 223 244 258 276 279 101 134 262 176 166 271 101 70 96 117 147 145 143 111 128 138 143 139 139 143 143 143 144 143 146 145 140 138 133 130 124 118 114 106 102 99 94 88 82 74 68
216 218 241 226 249 239 239 260 155 291 285 229 105 277 97 129 122 128 142 160 136 126 134 141 140 141 144 148 147 148 149 150 153 148 149 144 153 148 141 134 127 120 112 103 94 87 83 76 61
239 227 231 246 259 253 240 235 167 187 235 269 235 273 141 143 120 133 166 162 144 136 133 144 148 150 152 154 154 156 157 159 164 166 163 140 145 180 155 145 134 127 119 110 100 96 89 89 91
237 254 250 242 257 263 277 292 160 187 247 243 358 224 52 91 129 133 148 125 134 132 142 151 155 157 159 158 160 160 160 164 168 168 150 152 171 167 154 149 141 133 125 120 111 110 122 155 174
226 239 237 243 252 261 274 302 90 130 261 292 183 253 117 90 142 127 138 142 151 156 158 160 159 165 171 166 168 164 164 166 169 167 162 178 188 155 156 169 149 142 142 137 139 156 199 206 211
222 218 243 246 252 267 306 210 207 211 246 257 268 222 125 148 199 164 172 168 164 171 175 162 160 162 175 168 160 168 165 166 172 175 178 205 206 151 148 147 156 158 162 168 176 198 226 230 220
213 240 244 251 275 30 324 318 126 300 253 238 226 243 151 171 196 203 192 178 178 172 177 184 162 168 171 161 162 174 170 179 187 181 180 213 144 131 140 157 169 177 188 191 198 201 203 50 67
242 231 235 264 281 357 296 299 303 254 250 278 290 312 64 161 202 213 221 207 179 171 178 183 178 171 161 157 171 174 172 185 189 180 182 197 142 156 173 171 185 189 199 190 150 113 88 54 158
223 241 255 275 287 301 284 280 279 286 293 266 277 283 230 226 281 270 205 231 248 179 171 170 187 179 163 164 176 179 178 170 173 189 177 156 161 172 181 156 162 141 110 109 107 107 139 49 22
275 260 268 274 280 254 261 256 255 253 257 273 275 271 258 231 233 269 272 224 250 230 167 166 185 178 165 178 175 185 171 172 183 170 172 172 179 183 161 128 106 101 105 107 124 115 84 71 50
300 301 284 258 250 246 252 253 249 247 248 250 245 249 255 253 246 230 245 246 200 243 193 170 177 185 169 177 173 216 187 173 164 159 170 183 178 154 117 112 107 127 139 143 106 93 73 51 35
242 253 263 247 225 224 214 254 271 244 229 235 247 252 253 239 231 236 236 236 236 194 228 193 178 183 175 167 163 194 222 177 165 162 167 185 148 134 116 115 125 127 121 104 87 67 87 62 39
220 262 218 256 166 197 199 266 249 263 266 260 234 230 235 236 235 233 228 223 226 207 206 207 177 173 177 162 165 172 212 190 165 168 175 169 145 135 121 123 133 137 103 88 111 60 82 61 18
235 213 260 274 141 188 246 261 269 281 283 256 256 266 254 242 240 227 228 233 218 224 200 203 170 169 178 177 160 172 197 198 166 169 166 158 136 140 132 131 151 122 106 103 92 116 72 71 7
291 297 312 328 339 322 276 273 267 263 255 252 244 240 244 250 253 251 234 242 229 224 218 199 177 178 174 192 182 179 193 160 152 153 155 146 149 132 135 139 130 129 134 140 128 111 103 28 347
255 283 284 287 278 308 292 276 273 262 251 244 242 244 240 241 246 251 246 224 234 234 232 221 197 178 182 186 192 182 123 88 88 101 118 112 121 131 136 135 132 120 112 108 119 142 110 98 21
251 257 281 300 325 307 290 282 243 260 237 239 241 246 245 234 230 236 244 231 228 218 226 232 209 193 182 171 137 93 91 78 80 79 87 91 100 108 114 127 133 122 118 120 104 95 96 139 46
252 350 300 319 319 256 26 289 268 282 276 232 228 221 226 230 234 230 237 246 228 218 212 223 209 205 186 173 160 162 160 155 166 124 114 104 105 114 132 131 123 120 116 116 120 113 111 107 129
189 46 356 318 325 342 234 227 273 297 268 254 226 209 216 212 204 213 221 226 244 249 228 209 205 202 191 184 173 156 132 120 122 123 122 112 131 144 152 135 125 112 109 112 113 101 99 90 115
70 165 239 268 242 253 209 191 279 218 146 40 348 167 193 205 238 251 247 240 258 248 226 235 214 187 178 176 157 150 141 140 140 141 137 134 126 142 131 126 115 110 115 116 115 106 92 95 93
159 203 231 215 210 239 249 200 250 294 290 302 255 241 164 171 324 336 321 306 261 231 236 210 219 191 159 143 134 147 140 142 146 146 145 145 142 147 140 129 119 111 110 114 110 109 109 97 98
191 193 213 252 260 323 322 240 254 231 262 200 231 219 271 308 304 269 15 351 316 259 211 216 197 170 150 139 143 141 138 140 143 145 148 144 143 146 140 132 126 121 121 113 120 116 125 121 141
165 211 218 311 260 260 235 297 291 261 262 248 216 189 248 237 245 77 5 336 297 262 205 191 191 165 146 143 147 135 137 139 144 137 136 138 136 140 125 121 127 121 125 125 132 128 134 136 150
214 170 92 44 250 267 258 258 246 55 21 16 2 315 292 234 192 41 22 319 293 275 187 182 168 158 146 139 129 130 130 132 136 137 138 138 138 132 128 120 123 115 118 122 122 130 119 102 19
204 229 233 48 209 236 302 248 97 67 4 14 350 338 309 286 321 9 12 315 292 272 181 166 154 141 138 124 119 117 120 126 133 131 133 132 129 130 130 126 122 124 123 125 118 112 128 148 291
203 205 195 158 244 245 291 266 262 274 31 103 304 294 287 239 227 110 15 303 291 281 196 149 153 137 116 115 115 118 120 126 127 125 125 125 130 126 123 127 122 122 115 109 107 107 95 170 292